This demonstration page uses our WeatherBlox Daily Observations layout. Learn more.

Left ArrowRight Arrow

Hourly Observations for May 8, 2021

Temp ( °F °C ) Dew Point ( °F °C ) Humidity (%) Winds ( mph kmh ) Pressure ( in mb ) Visibility ( mi km ) Precip ( " mm )
12:56 am 00:56 Cloudy 57 13.9 44 6.7 62 62 ESE 20 31 29.86 1011 10 16 0.00 0.00
1:56 am 01:56 Mostly Clear 56 13.3 45 7.2 67 67 ESE 14 22 29.84 1010 10 16 0.00 0.00
2:56 am 02:56 Clear 54 12.2 45 7.2 72 72 E 12 19 29.82 1010 10 16 0.00 0.00
3:56 am 03:56 Clear 53 11.7 45 7.2 74 74 E 13 20 29.79 1009 10 16 0.00 0.00
4:56 am 04:56 Clear 52 11.1 45 7.2 77 77 ESE 17 28 29.75 1008 10 16 0.00 0.00
5:56 am 05:56 Clear 52 11.1 45 7.2 77 77 ESE 20 31 29.74 1007 10 16 0.00 0.00
6:56 am 06:56 Sunny 52 11.1 45 7.2 77 77 ESE 17 28 29.72 1007 10 16 0.00 0.00
7:44 am 07:44 Mostly Sunny 54 12 46 8 77 77 ESE 18 30 29.72 1006 10 16 0.00 0.00
7:56 am 07:56 Mostly Sunny 54 12.2 46 7.8 75 75 ESE 20 31 29.70 1006 10 16 0.00 0.00
8:56 am 08:56 Sunny 57 13.9 48 8.9 72 72 SE 20 31 29.68 1005 10 16 0.00 0.00
9:56 am 09:56 Sunny 61 16.1 51 10.6 70 70 SE 20 31 29.66 1004 10 16 0.00 0.00
10:56 am 10:56 Sunny 65 18.3 53 11.7 66 66 ESE 16 26 29.64 1004 10 16 0.00 0.00
11:56 am 11:56 Sunny 68 20 54 12.2 61 61 ESE 24 39 29.59 1002 10 16 0.00 0.00
12:56 pm 12:56 Cloudy 70 21.1 55 12.8 59 59 SE 18 30 29.58 1002 10 16 0.00 0.00
1:56 pm 13:56 Cloudy 71 21.7 57 13.9 61 61 SE 15 24 29.57 1001 10 16 0.00 0.00
2:56 pm 14:56 Cloudy 72 22.2 57 13.9 59 59 S 13 20 29.56 1001 10 16 0.00 0.00
3:56 pm 15:56 Cloudy 72 22.2 57 13.9 59 59 VRB 7 11 29.57 1001 10 16 0.00 0.00
4:56 pm 16:56 Cloudy 65 18.3 52 11.1 63 63 NE 28 44 29.58 1002 10 16 0.00 0.00
5:56 pm 17:56 Mostly Cloudy 61 16.1 45 7.2 56 56 NE 29 46 29.60 1002 10 16 0.00 0.00
6:56 pm 18:56 Cloudy 58 14.4 42 5.6 56 56 NE 23 37 29.66 1005 10 16 0.00 0.00
7:56 pm 19:56 Cloudy 54 12.2 40 4.4 59 59 N 24 39 29.70 1006 10 16 0.00 0.00
8:56 pm 20:56 Cloudy 48 8.9 37 2.8 66 66 NNE 32 52 29.76 1008 10 16 0.00 0.00
9:45 pm 21:45 Cloudy 45 7 39 4 81 81 N 30 48 29.83 1010 10 16 0.00 0.00
9:56 pm 21:56 Cloudy 44 6.7 40 4.4 85 85 N 28 44 29.81 1009 10 16 0.00 0.00
10:31 pm 22:31 Cloudy 43 6 39 4 87 87 NE 30 48 29.86 1011 10 16 0.00 0.00
10:56 pm 22:56 Cloudy 43 6.1 38 3.3 82 82 NNE 17 28 29.84 1011 10 16 0.00 0.00
11:53 pm 23:53 Mostly Cloudy 43 6 37 3 81 81 N 17 28 29.90 1012 10 16 0.00 0.00
11:56 pm 23:56 Mostly Cloudy 43 6.1 38 3.3 82 82 NNE 17 28 29.84 1011 10 16 0.00 0.00

Powered by AerisWeather